カタログに戻る

STARLINK-33931

運用中通信VLEO
NORAD 64006·PAYLOAD·🇺🇸 United States

打ち上げ May 14, 2025 から Cape Canaveral Space Force Station

Loading…

次のパス (今後24時間)

TLE

最新Source: CelesTrak SupGP

元期: Sep 15, 2026, 02:20 UTC

1 64006C 25101N   26258.09770833  .00011197  00000+0  40544-3 0  2581
2 64006  43.0033   7.9273 0001470 266.1890 210.0691 15.27581696    13

AllMySatでSTARLINK-33931をリアルタイム追跡

Download on the App Store